Lapse_Rate
2.3 1.9 1.9 4.2 4.0 4.0 3.9 3.7 3.6 3.3 3.5 3.4 3.2 2.9 2.6 2.4 1.4 3.0 0.8 0.5 4.1 2.6 4.6 4.3 4.4 4.7 5.3 7.1 6.5 6.5 6.8 6.6 6.7 6.5 6.5 6.5 6.5 6.5 6.5 6.5 6.5 6.5 6.5 6.5 6.5 6.5 6.5 7.0 6.8 6.5 6.6 7.3 7.2 7.3
2.0 2.9 2.4 2.0 3.5 3.7 3.8 3.6 3.5 3.3 3.3 3.2 2.9 2.9 2.8 2.5 1.8 2.5 2.9 0.5 2.4 3.4 3.2 2.4 2.2 2.3 2.9 4.1 6.2 5.0 6.2 6.7 7.2 6.5 6.5 6.5 6.5 6.5 6.5 6.5 6.5 6.5 6.5 6.5 6.5 6.5 6.9 7.4 7.2 7.7 7.8 7.4 7.7 7.4
2.1 2.3 2.7 3.2 3.0 3.3 4.0 3.4 3.5 3.3 3.1 3.0 2.9 2.7 2.9 3.1 2.5 3.1 2.6 1.2 2.8 1.4 2.3 4.4 5.0 3.2 3.4 3.1 3.0 6.6 7.0 4.2 5.0 2.6 7.0 6.6 6.5 6.5 6.5 6.5 6.5 6.5 7.0 6.5 6.5 6.6 6.8 7.3 7.7 7.8 8.1 7.8 8.0 8.2
3.1 2.7 2.7 3.2 3.5 3.7 3.2 4.4 3.6 3.0 2.9 2.8 2.7 2.8 2.9 3.1 2.8 2.1 2.6 1.6 3.0 1.6 5.2 6.2 5.0 5.0 3.1 3.8 4.1 4.1 3.3 1.6 2.8 5.3 7.1 6.5 6.5 7.0 6.5 6.6 6.5 6.7 6.8 6.5 6.5 6.8 7.1 7.4 7.4 7.9 7.8 8.0 7.4 6.5
5.2 3.5 2.7 3.0 3.0 3.3 3.6 3.5 4.5 3.6 2.9 2.6 2.5 2.7 2.9 3.1 2.4 1.9 1.9 1.8 1.9 2.7 5.4 6.9 5.4 4.6 4.4 4.7 4.0 3.3 3.5 4.4 6.0 6.6 6.8 6.5 7.1 6.8 6.9 6.7 6.5 7.1 6.5 6.5 6.5 7.0 6.9 7.1 7.8 7.8 6.6 6.5 6.8 6.4
5.5 4.8 4.2 3.4 2.5 3.2 3.8 4.0 4.1 4.3 3.4 2.6 1.9 2.0 2.6 2.8 1.8 4.7 5.5 2.1 1.5 1.0 2.2 6.4 4.6 5.0 5.6 5.3 4.5 4.5 4.9 5.1 6.4 7.3 7.0 7.3 3.2 6.6 6.5 6.5 6.7 5.7 6.4 6.9 7.0 6.3 6.4 6.1 6.0 5.9 5.8 5.8 5.8 5.9
7.0 5.9 5.0 4.2 3.5 3.2 3.8 4.1 3.8 4.9 4.2 3.1 2.1 1.7 2.0 1.9 4.3 4.5 4.0 2.5 2.0 2.6 3.8 6.2 6.8 6.6 6.8 6.5 6.4 6.9 6.2 6.3 7.5 7.4 7.1 7.2 7.2 6.9 6.5 6.5 6.5 4.9 4.4 5.4 6.1 3.9 6.0 6.3 6.9 5.0 4.9 5.1 5.0 5.2
7.8 6.9 6.0 4.9 4.2 3.7 3.4 3.6 4.0 4.5 4.6 3.5 2.7 1.5 1.8 2.7 3.4 3.4 0.8 1.6 2.9 3.6 3.7 6.5 6.6 7.2 6.6 7.4 7.2 6.9 7.6 7.7 7.6 7.4 7.4 7.0 7.0 7.1 6.5 6.5 5.8 3.5 2.4 2.6 3.3 3.7 4.4 4.0 3.8 4.5 4.8 4.5 3.8 3.7
7.6 7.8 7.0 5.7 4.9 4.2 3.3 3.5 4.0 5.0 5.0 3.8 5.0 3.5 2.9 3.1 4.0 3.4 2.9 2.1 3.7 3.8 6.4 6.9 6.5 6.5 6.8 7.5 7.7 7.4 7.9 6.6 7.7 6.9 7.0 7.2 6.5 6.5 6.5 6.4 5.0 3.5 2.9 3.7 3.3 2.8 2.4 2.1 2.5 3.1 3.2 3.0 3.3 2.4
7.5 7.7 7.7 6.7 5.6 4.9 4.5 3.4 4.7 6.2 4.5 2.9 2.9 3.1 4.2 3.1 4.1 3.4 4.4 4.0 4.2 4.6 4.4 6.7 7.3 6.5 7.6 7.4 7.1 7.1 7.4 6.5 6.5 6.6 7.5 6.5 6.5 6.6 6.3 4.4 3.8 2.5 2.2 1.1 2.3 2.7 2.1 2.4 2.9 2.6 1.8 1.3 1.2 1.4
7.6 7.6 7.7 7.4 6.3 5.4 5.1 5.4 4.6 4.2 2.5 3.7 2.6 3.3 3.7 4.3 3.3 3.5 5.7 6.4 6.8 6.7 7.2 7.1 7.1 6.7 6.6 6.6 6.6 7.3 6.6 6.6 6.5 6.6 6.5 6.5 6.5 6.6 3.9 3.9 2.1 1.3 0.6 -0.4 0.9 0.0 0.2 1.4 2.0 1.5 1.7 2.3 1.7 1.8
7.7 7.6 7.8 7.8 6.9 6.1 5.8 5.2 4.2 4.3 2.9 3.2 2.1 4.7 4.9 4.9 5.3 6.4 6.5 6.7 6.5 6.5 7.1 7.0 7.1 7.5 7.1 7.3 6.9 6.9 6.5 6.6 6.5 7.1 6.5 6.5 6.5 5.1 1.6 -1.1 -2.4 -2.0 -1.4 -1.5 -2.0 -1.2 -1.0 -0.7 -0.3 -0.3 -0.3 0.5 1.0 1.2
7.9 7.7 7.8 7.8 7.6 6.3 6.1 5.5 5.6 2.2 1.6 2.1 3.5 4.8 5.8 6.3 6.5 6.5 6.5 6.5 6.5 6.9 7.1 7.3 6.8 6.8 6.5 6.9 6.9 6.6 6.5 6.5 7.1 6.5 6.5 6.5 6.3 3.6 1.6 -1.6 -3.8 -4.6 -3.9 -2.5 -2.6 -2.9 -2.0 -1.5 -0.9 -1.0 -0.3 0.5 0.9 2.7
8.0 7.8 7.9 7.9 7.9 7.1 5.6 5.9 3.8 3.1 3.8 3.7 5.4 6.5 6.5 6.5 6.5 6.5 6.5 6.5 7.1 7.3 7.4 7.3 7.1 7.0 7.3 6.7 6.7 6.5 6.5 6.6 6.5 6.5 6.5 6.5 5.4 2.4 0.4 -0.9 -1.4 -2.7 -3.1 -1.9 -1.2 -1.1 -0.8 0.8 2.0 2.5 2.9 3.6 4.4 4.8
8.0 7.9 8.0 7.9 7.7 7.6 6.0 5.7 4.3 2.8 3.4 4.9 6.2 6.5 6.5 6.3 5.2 5.7 4.7 6.0 7.0 7.8 7.4 6.6 7.0 7.1 6.6 6.5 6.5 6.5 6.5 6.5 6.5 6.5 6.5 6.9 2.7 1.4 0.9 0.2 1.2 0.4 -0.4 0.9 1.5 1.9 2.7 3.3 3.5 4.3 5.0 4.9 5.0 5.2
8.1 8.0 8.1 7.9 7.2 7.2 6.4 4.9 3.1 2.2 2.1 5.2 5.7 6.4 6.6 6.6 6.6 6.8 7.1 7.0 7.6 7.6 6.2 6.1 6.6 6.5 6.5 6.5 6.5 6.5 6.5 6.5 6.5 6.5 6.7 3.2 2.3 2.1 1.6 1.8 2.5 2.6 2.3 2.7 2.8 3.2 3.8 4.0 4.5 4.9 4.9 5.1 5.1 5.1
8.2 7.6 8.3 7.7 7.1 7.2 6.4 3.1 2.8 2.9 4.1 5.6 6.5 5.0 6.7 6.6 6.6 7.0 7.2 7.5 8.0 6.7 6.5 6.6 6.5 6.5 6.5 6.5 6.5 6.5 6.5 6.5 6.6 5.5 3.5 2.9 1.8 2.4 2.7 2.6 2.7 2.7 2.7 3.0 3.3 3.6 4.1 4.4 4.4 4.6 5.1 6.0 5.5 5.5
7.2 7.9 7.7 7.6 6.8 5.5 1.5 1.5 2.6 4.0 6.5 5.8 6.6 6.8 6.0 6.5 7.1 6.6 6.0 7.5 6.9 6.4 6.5 6.5 6.7 6.5 6.5 6.5 6.5 6.5 6.7 4.5 4.2 3.4 2.6 2.2 1.9 1.9 2.3 2.5 2.8 2.9 2.8 3.1 3.4 3.7 3.6 3.9 4.5 5.4 5.5 5.5 5.1 5.8
7.2 7.3 7.5 7.3 4.3 2.3 3.7 2.6 3.2 6.6 6.7 6.9 6.1 6.1 6.0 6.4 5.9 5.8 5.8 6.8 5.8 5.4 5.2 6.4 6.5 6.5 6.5 6.6 6.5 6.0 5.5 3.8 4.4 3.7 2.9 2.6 1.9 1.7 2.1 2.4 2.4 2.4 2.5 2.6 3.0 3.9 4.5 4.6 4.8 5.1 5.5 5.8 6.0 6.6
7.9 7.9 8.0 7.1 3.0 2.1 3.5 4.3 4.0 5.6 6.7 6.9 7.2 7.0 6.6 6.7 6.5 6.4 6.5 5.9 6.1 5.7 6.4 6.5 6.5 6.7 6.3 5.1 3.9 3.3 3.6 3.1 1.9 3.4 2.9 2.3 2.4 1.6 1.8 2.0 2.5 2.8 2.9 2.5 2.6 3.7 3.9 4.2 4.5 4.9 5.4 5.7 6.4 7.6
5.5 4.2 2.9 0.1 -0.1 1.1 4.2 5.9 6.0 6.6 6.7 7.0 7.2 6.8 7.0 6.9 7.1 6.9 6.8 6.5 5.7 6.7 6.5 6.6 6.0 4.1 0.7 0.4 1.7 1.9 1.8 2.6 3.3 2.3 2.5 2.2 1.7 2.2 1.7 2.0 1.8 2.4 3.2 3.2 4.0 4.3 4.8 4.8 5.3 5.1 4.8 5.5 6.2 6.4
4.0 3.3 2.1 1.6 1.7 3.6 4.8 4.7 6.1 6.3 6.5 7.0 6.9 6.9 6.9 6.7 6.9 6.9 6.7 6.6 6.9 5.5 5.2 4.6 3.8 2.3 0.8 0.0 -0.3 0.6 1.1 0.7 0.8 2.3 2.5 1.3 0.7 1.2 1.5 1.1 1.5 2.0 2.6 3.2 3.4 3.7 4.0 4.3 4.4 4.6 4.8 5.3 5.9 6.1
4.2 3.4 2.6 2.6 4.8 6.0 6.3 4.9 6.7 6.8 6.5 6.6 6.8 6.6 6.6 6.8 7.0 6.9 6.8 7.0 7.0 5.0 3.6 3.6 1.7 0.4 1.1 -0.9 -0.8 -0.8 0.4 1.3 1.1 1.3 2.0 1.4 1.2 1.0 1.4 1.6 2.5 2.5 2.5 2.4 2.8 3.1 3.2 4.0 4.6 5.4 4.9 5.2 5.4 5.6
3.8 2.8 4.1 5.6 6.4 6.6 6.7 6.7 7.0 6.9 6.9 6.6 6.5 6.5 6.5 6.7 5.6 6.8 6.5 6.8 6.3 3.3 3.6 2.6 0.8 -0.4 -0.6 -0.2 0.5 0.2 -0.1 1.5 0.6 0.2 0.5 0.7 0.9 1.7 2.6 2.3 2.3 2.7 3.2 2.7 2.3 2.5 2.8 3.5 4.6 4.5 4.3 4.4 4.7 4.5
6.1 5.9 5.9 6.5 6.7 6.6 6.5 6.5 6.5 6.5 6.5 6.5 6.5 6.5 6.5 6.8 6.5 6.5 6.5 6.7 5.4 4.0 4.2 3.4 3.1 3.0 1.8 1.6 2.0 0.8 -1.2 1.0 1.3 0.5 -0.3 2.1 1.1 0.3 0.6 1.5 1.8 2.1 1.5 1.6 1.6 1.9 2.6 3.1 3.1 3.3 3.8 3.9 3.8 3.2
6.5 6.2 6.5 6.5 6.6 6.5 6.5 6.5 6.5 6.5 6.5 6.5 6.5 6.8 6.8 6.5 6.5 6.5 6.5 6.9 6.7 6.4 5.6 3.9 3.5 3.3 3.7 2.7 1.3 -0.1 -0.7 0.2 1.5 1.6 -0.7 0.3 1.4 1.3 0.6 0.6 1.0 1.1 0.9 1.9 2.0 2.0 2.6 2.2 2.2 1.9 3.0 3.2 4.9 4.3
6.5 6.5 6.7 6.2 7.2 6.9 6.6 6.8 6.8 6.5 6.5 6.5 6.5 6.5 6.5 6.5 6.5 6.5 5.6 2.5 3.5 2.4 1.5 4.5 5.9 5.8 5.2 1.2 0.1 -0.6 -1.0 -0.3 0.5 0.6 -0.2 0.1 0.7 1.7 2.5 1.9 1.5 2.2 0.8 0.9 1.1 1.9 2.4 1.7 2.0 2.3 2.8 3.0 2.4 2.1
6.6 6.9 6.5 6.5 6.6 6.9 6.5 6.5 6.5 6.5 6.5 6.7 6.7 6.5 6.5 6.5 6.5 5.9 3.8 2.1 0.4 0.1 0.9 1.1 3.3 5.5 3.6 2.4 0.1 -1.1 -2.2 -2.9 -3.0 -2.2 -1.6 -1.4 -1.6 -0.7 -1.6 -0.4 0.1 2.5 0.3 -0.0 1.1 1.1 1.5 1.8 2.1 2.5 2.3 2.2 2.1 1.8
6.6 7.1 6.6 6.5 6.6 6.7 6.6 6.5 6.5 6.3 5.3 7.0 6.5 6.5 6.6 6.1 4.2 2.8 3.0 1.7 1.5 2.7 2.7 2.5 1.2 0.7 -0.6 -1.5 -1.5 -1.9 -1.8 -0.7 0.4 0.7 2.2 2.3 0.7 0.2 -2.0 -1.1 -0.7 0.2 0.6 1.9 3.8 1.3 0.3 0.7 1.6 2.5 2.3 2.1 2.3 1.6
6.6 5.8 6.7 6.6 6.5 6.5 6.6 4.6 6.2 4.5 4.2 3.5 3.9 5.4 5.8 5.0 3.6 2.5 1.3 0.3 0.9 1.6 0.7 1.6 1.2 1.9 0.0 0.1 -1.7 -1.9 -3.0 -1.9 -1.4 1.5 2.3 1.8 1.4 0.0 -1.1 -1.7 -1.8 -1.5 -1.0 -0.1 0.5 0.6 3.8 5.1 4.2 5.2 1.8 0.6 1.3 1.3
6.0 6.6 6.6 6.8 6.5 6.4 4.6 3.1 3.2 3.8 3.8 4.2 3.5 5.7 5.9 4.9 3.3 1.1 -0.8 -1.7 -0.2 1.3 2.3 1.8 0.4 0.3 1.4 0.9 0.4 0.0 0.1 -2.1 -5.1 -4.7 -3.1 -2.3 -2.4 -2.2 -2.3 -2.0 -1.4 -1.3 -0.9 -0.6 -0.4 0.1 0.7 1.7 1.3 1.4 1.4 1.1 0.7 3.1
6.2 6.7 6.6 6.5 6.6 4.8 3.6 5.1 5.4 6.1 5.4 6.2 5.4 5.2 5.1 6.3 6.6 2.9 -0.4 -1.3 1.3 -0.4 0.8 -0.4 1.2 -1.5 -3.8 -3.5 -3.1 -2.3 -0.7 -1.5 -3.2 -4.0 -3.2 -2.8 -2.1 -2.5 -2.8 -3.0 -3.4 -2.2 -1.5 -1.2 -0.8 -0.4 -1.0 -0.5 0.3 0.5 0.9 0.5 -0.0 -0.2
6.3 6.4 6.5 6.8 6.7 6.8 5.5 6.4 6.8 6.7 6.6 6.9 6.1 4.8 4.2 5.8 6.5 4.6 2.6 -0.9 -2.7 -3.6 -4.1 -4.4 -5.0 -5.4 -5.8 -5.4 -5.0 -4.5 -4.3 -5.4 -3.8 -0.2 0.4 0.6 0.6 -0.9 -2.5 -2.4 -2.5 -2.4 -2.3 -1.3 -0.6 -0.3 -0.8 -1.3 -1.0 -0.9 -1.2 -1.4 -1.5 -1.2
Wind_Speed
13 22 27 33 36 36 37 36 35 34 33 30 27 24 20 19 18 7 3 3 1 1 3 4 4 5 4 3 4 5 4 2 3 3 2 0 3 1 3 4 3 4 3 3 2 4 6 1 8 5 10 17 19 20
12 12 21 19 19 35 37 38 37 36 35 34 32 28 23 22 21 9 2 6 4 2 3 2 2 2 2 3 3 5 1 2 3 2 2 1 4 3 2 4 2 3 5 2 6 4 3 8 6 11 11 16 19 18
14 14 13 17 17 18 38 39 39 39 38 37 35 32 29 25 22 10 4 7 4 3 2 3 3 3 2 3 2 3 2 2 3 2 1 1 6 2 4 5 3 6 4 4 4 4 6 7 10 6 11 16 18 16
11 17 16 15 15 16 25 37 40 41 42 41 39 35 33 28 24 12 3 8 3 3 2 3 2 3 3 0 1 2 5 5 4 1 2 3 3 3 2 2 4 2 8 6 8 15 12 4 4 9 14 15 19 19
15 12 18 20 15 17 18 24 38 41 43 44 42 39 35 31 24 11 6 8 2 3 2 3 2 2 1 2 4 6 7 6 3 3 3 3 1 2 2 2 6 9 7 7 3 2 2 6 6 11 11 14 15 15
18 17 15 20 18 16 18 20 23 39 42 44 45 43 39 36 29 5 2 5 10 3 4 3 2 2 3 7 8 6 4 2 2 2 2 2 1 2 3 4 6 12 7 7 2 3 4 8 10 7 9 14 14 15
21 20 18 15 20 19 15 17 24 34 40 43 45 45 44 39 18 2 3 4 20 6 3 2 3 2 6 4 2 3 1 1 1 1 3 2 2 3 3 5 3 8 9 8 6 2 7 4 4 8 11 13 14 14
21 22 21 20 16 22 16 15 19 25 39 41 42 43 39 30 13 1 5 17 7 5 1 3 2 4 7 4 4 2 3 3 3 2 1 3 3 3 6 13 3 3 3 6 9 9 7 6 7 9 8 10 13 11
23 22 22 22 20 17 21 12 17 28 32 34 37 41 14 1 3 4 15 13 10 3 5 5 8 5 5 2 3 3 3 3 2 3 3 4 5 8 10 7 8 11 6 4 5 5 3 4 7 6 6 8 9 10
27 23 21 22 23 18 20 15 13 23 32 53 17 3 4 3 35 24 4 3 1 3 2 3 4 5 7 5 4 4 3 3 3 3 4 5 5 17 9 6 3 6 9 8 5 2 3 5 5 3 3 6 6 9
28 25 22 21 23 21 15 21 5 51 41 2 3 2 3 28 2 1 4 5 5 4 6 4 4 7 4 4 5 4 3 3 3 3 4 4 5 4 5 11 9 6 7 7 2 3 2 1 3 3 5 5 7 9
26 26 23 22 21 21 16 18 57 19 2 7 10 6 3 2 1 5 6 4 7 7 6 7 4 4 4 3 3 4 4 3 4 5 3 4 5 4 5 5 6 6 7 6 4 5 4 5 5 5 5 6 6 7
27 28 23 21 22 20 18 34 42 45 32 4 3 4 4 3 5 8 10 6 6 8 8 7 6 4 4 2 4 3 6 5 4 4 5 6 2 4 6 6 6 5 5 5 4 3 4 3 5 5 6 6 6 8
27 27 24 22 22 22 16 39 47 33 5 3 6 7 7 5 7 7 5 6 4 7 13 10 6 4 3 3 3 5 2 4 4 5 7 4 9 8 8 5 7 7 7 6 6 5 5 6 6 6 7 7 7 8
27 27 24 21 21 22 20 36 43 5 3 5 6 7 9 3 2 2 5 6 5 12 13 7 5 3 3 4 3 5 5 6 8 6 3 3 8 11 11 8 7 8 8 7 6 6 6 6 5 5 4 5 6 7
26 24 16 21 21 20 16 42 4 1 1 4 4 4 2 5 3 3 5 5 10 12 5 4 5 5 4 5 6 9 7 9 5 4 3 6 11 11 11 9 9 7 8 6 6 5 4 3 3 4 4 5 5 6
26 6 12 17 22 21 26 7 2 3 5 5 3 2 4 1 5 5 5 7 12 11 5 4 7 6 6 4 6 7 7 3 3 4 5 8 12 12 11 9 8 8 7 6 5 4 3 2 2 3 4 4 5 6
7 7 15 15 4 7 3 2 3 2 4 2 4 5 3 1 7 6 5 10 7 5 5 4 5 5 7 7 5 4 5 2 2 5 6 9 11 11 9 10 9 8 7 5 4 3 2 2 3 3 3 3 4 5
9 10 13 10 8 4 3 1 1 3 1 0 3 3 3 3 2 6 7 12 2 3 4 3 4 5 5 4 3 4 6 4 5 4 4 8 10 12 11 8 7 6 6 6 5 3 2 3 2 2 2 2 3 4
20 16 8 24 8 3 4 2 1 3 2 1 2 4 3 2 5 6 10 4 3 3 3 5 5 3 3 3 3 3 6 7 10 8 6 5 5 8 8 7 6 6 5 5 3 5 3 3 2 3 2 2 3 4
8 6 12 6 3 4 3 2 3 1 4 2 3 2 2 1 3 5 6 3 3 4 4 5 3 1 1 0 0 5 9 10 9 7 8 7 6 6 5 4 6 5 4 4 4 4 5 3 1 2 2 2 3 4
3 8 3 3 3 3 3 2 3 2 2 3 2 1 3 3 3 4 4 3 4 3 4 3 3 4 3 3 3 3 8 7 6 7 11 15 7 6 6 6 6 5 5 5 4 4 4 3 2 2 2 3 3 4
12 3 3 3 4 3 3 1 2 2 4 3 1 2 1 2 2 4 3 4 4 4 4 3 3 2 4 3 5 6 6 10 6 6 8 6 7 6 6 6 5 5 5 4 4 4 3 5 4 3 2 3 3 3
7 3 3 3 3 4 4 2 2 3 3 3 3 3 2 2 1 2 5 3 3 4 7 8 6 4 3 4 4 6 6 5 6 5 6 8 7 5 5 5 4 4 3 4 4 4 4 3 5 3 2 3 3 3
5 2 3 4 3 5 4 5 4 4 4 4 5 2 3 3 4 5 4 3 4 6 8 8 8 8 7 6 5 6 4 8 8 8 4 5 6 6 4 3 3 3 4 5 5 5 4 4 3 3 3 4 3 3
3 3 3 5 4 5 6 5 7 5 4 4 4 3 3 4 4 6 4 1 1 4 9 10 12 9 8 8 10 7 8 4 6 5 5 6 7 8 7 6 5 4 5 4 4 5 5 4 3 4 4 6 7 2
5 5 2 1 2 4 3 2 3 3 5 6 5 8 5 5 7 2 2 4 2 3 4 2 5 8 7 4 4 5 8 7 3 3 6 6 4 2 5 6 6 2 7 7 5 5 6 5 4 4 4 2 3 3
2 4 6 5 2 1 3 3 5 6 4 4 7 7 7 5 1 3 3 4 5 5 3 2 3 2 5 6 6 8 7 6 7 8 7 5 3 2 3 2 1 13 6 5 5 4 4 4 4 4 4 3 2 2
2 2 4 3 2 2 1 1 2 2 2 4 3 1 1 3 4 5 4 6 4 3 2 3 4 4 6 6 5 4 8 9 10 8 8 5 3 4 4 4 2 3 3 3 10 8 7 4 5 4 4 3 2 2
2 1 2 2 3 2 2 2 1 2 2 1 0 2 2 2 3 4 5 6 6 5 4 3 1 3 5 6 6 5 3 3 3 4 8 7 6 4 7 6 5 4 3 3 3 0 6 5 2 3 4 2 2 2
2 1 3 3 3 1 1 2 1 1 0 1 2 2 2 2 2 5 7 6 5 3 4 5 5 5 5 6 5 6 4 2 2 4 4 3 4 4 5 5 5 5 5 4 4 3 2 2 2 2 3 4 4 5
2 2 1 3 2 1 1 1 0 1 1 1 3 2 1 1 3 6 7 8 6 7 10 8 5 5 5 3 3 3 6 2 5 3 2 3 3 4 5 4 4 3 4 4 3 3 3 4 3 3 3 6 5 4
2 1 2 3 3 2 1 1 1 2 2 2 3 3 2 3 4 4 4 5 4 4 5 4 4 3 3 4 5 4 7 3 2 6 7 6 7 7 4 3 3 4 5 3 4 4 6 5 4 4 4 4 4 4
Wind_Direction
339 3 2 216 206 206 204 202 201 197 195 195 193 190 189 194 183 181 114 156 274 130 144 196 165 151 146 205 197 136 154 185 178 215 241 213 250 78 277 253 235 227 218 221 218 259 285 38 300 345 319 306 314 319
319 322 355 337 252 213 208 204 201 198 196 192 189 186 184 184 182 175 132 137 90 89 72 40 73 61 27 38 129 174 335 156 173 188 217 250 228 187 277 277 189 255 223 256 222 259 135 298 283 306 305 307 314 317
301 306 309 343 310 311 219 207 204 198 194 190 188 183 182 187 185 180 139 146 118 122 129 192 189 119 84 28 344 176 190 110 161 5 146 302 245 186 237 230 254 219 179 245 317 211 276 306 308 294 312 311 312 317
290 291 293 296 328 305 333 218 207 202 194 189 187 182 179 181 179 160 165 170 120 120 194 131 125 116 354 315 46 33 116 94 99 201 196 219 247 186 252 329 254 1 157 223 257 277 284 250 273 313 312 310 316 322
282 287 290 288 292 323 303 321 218 205 198 189 183 180 174 173 171 141 130 192 184 142 147 121 150 123 62 154 116 117 133 130 155 166 186 229 258 223 195 294 239 183 195 189 263 109 265 311 327 322 307 314 318 321
277 280 283 285 288 287 316 298 280 209 201 190 180 174 170 164 153 138 216 199 182 139 104 183 53 134 102 120 121 127 127 108 152 202 204 199 70 247 260 248 244 188 223 235 353 26 298 299 309 311 307 313 315 318
271 274 275 284 284 276 286 305 324 232 204 194 181 171 164 161 160 172 191 124 153 122 113 136 194 142 144 136 115 133 113 131 235 181 224 233 184 219 256 247 189 190 211 224 234 248 272 237 303 322 307 308 312 308
257 268 273 275 284 285 279 297 300 302 210 192 177 161 152 141 117 81 47 122 117 94 120 150 117 176 189 170 163 172 164 194 199 245 183 207 137 229 254 238 213 157 163 221 228 216 262 310 300 298 306 314 317 317
248 256 265 272 276 285 285 288 300 323 215 168 142 124 112 77 148 130 115 73 48 106 178 176 169 181 167 128 107 154 204 198 121 231 215 187 193 228 226 218 202 189 187 150 161 197 239 266 288 291 301 301 313 313
249 246 253 266 273 277 287 280 288 321 148 125 121 122 153 173 126 113 92 124 208 223 196 206 105 145 178 163 161 142 189 219 228 204 141 226 252 252 234 195 172 185 183 139 139 232 208 254 238 259 270 287 273 287
251 246 249 254 265 274 278 287 303 129 132 112 118 86 97 134 133 126 143 164 175 219 194 164 169 141 218 150 151 202 181 172 234 167 220 246 260 235 178 202 178 167 169 190 90 97 100 225 268 268 282 286 294 298
248 244 245 249 256 267 268 289 142 143 92 124 104 95 111 218 221 154 179 157 200 201 142 145 136 110 138 142 119 173 171 167 236 142 238 253 246 166 161 164 168 169 174 179 182 209 207 211 231 246 262 267 277 287
243 239 239 245 251 255 265 177 162 126 115 96 70 122 176 169 207 199 186 199 196 158 165 156 133 133 137 118 102 150 179 198 121 208 233 237 154 166 153 138 128 118 129 144 163 199 216 229 227 231 261 259 267 289
240 236 234 240 247 247 245 184 152 143 106 134 154 176 214 184 224 203 183 150 146 148 148 136 122 134 137 139 140 153 126 143 211 237 236 229 191 167 158 144 133 165 173 180 191 192 214 230 246 242 250 271 285 298
236 233 232 237 244 248 248 178 164 137 145 161 171 210 200 189 56 34 100 117 135 147 142 113 96 126 136 126 176 110 161 227 219 229 227 191 150 149 157 164 159 155 171 181 184 186 210 218 232 263 272 282 293 299
233 233 232 235 240 245 248 165 140 34 145 178 181 145 118 130 138 167 163 136 146 146 110 97 138 157 164 153 164 203 189 222 218 198 168 134 147 153 155 163 165 157 165 162 168 186 206 222 248 279 298 290 291 295
223 221 197 223 228 227 181 128 108 218 209 173 178 148 194 87 158 161 159 167 159 155 156 148 162 168 116 196 211 192 212 223 155 143 140 157 156 152 147 145 153 153 155 162 161 188 207 213 260 278 289 316 309 303
216 196 219 247 258 119 33 27 128 189 205 189 183 161 152 131 138 142 136 158 155 191 147 175 125 180 190 195 212 209 198 119 77 138 143 140 136 136 139 147 155 159 152 157 159 170 190 208 247 272 305 311 299 282
191 202 224 184 126 103 118 106 42 152 335 164 114 104 107 114 43 122 141 163 66 95 123 167 201 198 209 219 209 164 165 165 150 141 130 138 138 139 139 139 145 148 151 153 162 184 200 225 257 284 294 299 305 316
204 211 246 169 91 105 113 103 145 124 154 155 123 133 100 123 141 147 154 136 127 127 197 217 216 212 206 213 193 152 154 142 134 134 137 140 136 131 146 151 150 154 150 142 150 181 194 214 208 230 246 263 276 294
79 83 72 69 69 57 78 114 84 63 122 128 132 126 104 144 149 165 156 152 179 214 222 214 212 209 66 347 17 140 146 158 166 161 157 153 161 142 141 147 131 152 161 163 182 185 198 198 212 224 247 273 276 286
108 113 94 66 88 85 87 13 98 99 94 118 149 119 137 157 151 154 115 204 228 214 203 175 172 157 180 188 185 164 145 113 106 118 126 131 146 155 167 162 161 174 169 174 181 181 174 168 191 224 237 262 274 277
108 98 84 98 95 65 98 257 126 162 127 157 133 124 164 160 135 128 216 234 242 198 180 172 141 105 134 125 113 119 134 138 133 137 140 136 140 139 146 157 170 162 166 182 177 171 167 177 207 232 236 269 263 264
66 65 91 95 94 116 149 135 131 128 121 173 172 169 193 137 157 239 251 239 226 160 180 165 143 115 83 115 175 171 154 136 125 112 133 135 134 147 147 148 157 171 159 143 163 164 159 181 205 209 216 244 246 254
132 165 156 124 135 129 146 146 163 183 156 150 145 163 185 182 204 230 238 253 200 188 188 168 171 187 176 177 170 164 160 160 156 155 152 136 121 117 119 130 162 179 155 164 173 165 171 181 188 200 219 230 235 248
138 177 164 154 158 181 168 148 182 158 135 138 172 117 161 190 226 239 216 245 223 213 197 191 185 180 185 180 169 168 173 154 139 140 159 166 169 160 158 161 175 202 189 192 160 168 178 178 181 193 222 241 248 238
168 192 171 298 129 133 128 98 129 155 170 169 172 173 172 202 231 223 51 38 350 355 334 301 212 197 176 138 105 105 136 144 120 117 133 158 147 111 156 167 181 165 159 169 162 167 176 172 181 201 219 217 218 225
114 171 170 172 137 175 137 161 177 190 155 138 146 191 194 213 13 10 10 354 330 302 292 12 15 106 127 137 125 125 108 106 95 92 86 67 55 78 91 92 102 146 132 142 155 153 157 161 177 195 206 217 209 202
90 132 123 113 136 154 82 181 152 63 19 182 208 166 136 49 11 346 336 329 309 301 61 87 51 81 85 82 85 117 142 142 133 144 153 155 161 203 179 164 147 108 119 155 182 173 185 178 196 206 198 193 197 184
109 325 119 115 138 131 61 353 50 15 18 34 14 139 111 74 23 346 354 7 11 26 21 47 88 115 121 125 123 113 28 41 40 153 172 177 189 142 164 163 154 154 159 173 173 155 244 231 250 217 150 160 185 200
333 119 83 56 82 54 23 340 286 240 229 66 9 49 74 121 120 33 18 351 340 10 51 45 45 31 75 105 121 139 162 183 108 56 68 93 121 133 134 134 136 141 151 145 140 155 163 168 161 177 188 209 231 234
27 40 129 123 118 135 217 263 213 83 4 70 43 37 96 124 60 19 6 352 15 30 27 24 44 36 17 34 45 35 28 107 147 167 155 106 103 106 117 116 121 126 129 132 137 147 174 184 172 194 212 232 232 231
117 93 96 120 129 171 158 221 100 125 59 78 56 40 45 30 67 4 19 36 27 4 3 6 2 359 19 28 39 37 48 42 133 141 163 166 165 167 158 161 157 152 156 163 174 181 194 195 210 214 222 232 239 241